Weather History for Nalchik, Russia

Change the Weather History Date:

Tuesday, February 5, 2013

  Actual Average Record
Temperature  
Mean Temperature 44 °F -  
Max Temperature 53 °F - - ()
Min Temperature 35 °F - - ()
Degree Days  
Heating Degree Days 21    
Moisture  
Dew Point 33 °F    
Average Humidity 68    
Maximum Humidity 93    
Minimum Humidity 49    
Precipitation  
Precipitation 0.00 in - - ()
Sea Level Pressure  
Sea Level Pressure 29.93 in    
Wind  
Wind Speed 3 mph ()    
Max Wind Speed 13 mph    
Max Gust Speed 20 mph    
Visibility 6.2 miles    
Events      
T = Trace of Precipitation, MM = Missing Value Source: Averaged Metar Reports

Daily Weather History Graph

Daily Weather History Graph

Search for Another Location

Airport:

Trip Planner

Search our weather history database for the weather conditions in past years. The results will help you decide how hot, cold, wet, or windy it might be!

Date:

Astronomy

Feb. 05, 2013 Rise Set
Actual Time 8:17 AM MSK 6:22 PM MSK
Civil Twilight 7:47 AM MSK 6:52 PM MSK
Nautical Twilight 7:13 AM MSK 7:26 PM MSK
Astronomical Twilight 6:39 AM MSK 7:59 PM MSK
Moon 3:37 AM MSK (2/5) 1:15 PM MSK (2/5)
Length of Visible Light 11h 05m
Length of Day
10h 05m
Waning Crescent, 30% of the Moon is Illuminated
Feb 5
Waning Crescent
Feb 10
New
Feb 18
First Quarter
Feb 26
Full
Mar 5
Last Quarter

Hourly Weather History & Observations

Time (MSK) Temp. Windchill Dew Point Humidity Pressure Visibility Wind Dir Wind Speed Gust Speed Precip Events Conditions
12:00 AM 39.2 °F - 30.2 °F 70% 30.01 in 6.2 mi Calm Calm - N/A   Scattered Clouds
12:30 AM 39.2 °F 36.0 °F 30.2 °F 70% 30.01 in 6.2 mi WSW 4.5 mph - N/A   Scattered Clouds
1:00 AM 39.2 °F - 28.4 °F 65% 29.98 in 6.2 mi Calm Calm - N/A   Mostly Cloudy
1:30 AM 37.4 °F 33.9 °F 30.2 °F 75% 29.98 in 6.2 mi SSE 4.5 mph - N/A   Overcast
2:00 AM 35.6 °F - 28.4 °F 75% 29.98 in 6.2 mi West 2.2 mph - N/A   Overcast
3:00 AM 37.4 °F 33.9 °F 28.4 °F 70% 29.98 in 6.2 mi West 4.5 mph - N/A   Overcast
4:00 AM 39.2 °F 36.0 °F 28.4 °F 65% 29.95 in 6.2 mi West 4.5 mph - N/A   Overcast
5:00 AM 39.2 °F - 26.6 °F 61% 29.92 in 6.2 mi South 2.2 mph - N/A   Overcast
6:00 AM 39.2 °F 36.0 °F 26.6 °F 61% 29.89 in 6.2 mi WSW 4.5 mph - N/A   Overcast
7:00 AM 37.4 °F 33.9 °F 24.8 °F 60% 29.86 in 6.2 mi WSW 4.5 mph - N/A   Scattered Clouds
7:30 AM 39.2 °F 36.0 °F 24.8 °F 56% 29.86 in 6.2 mi South 4.5 mph - N/A   Scattered Clouds
8:00 AM 35.6 °F 31.8 °F 24.8 °F 65% 29.86 in 6.2 mi NW 4.5 mph - N/A   Scattered Clouds
9:00 AM 35.6 °F 31.8 °F 26.6 °F 70% 29.83 in 6.2 mi SW 4.5 mph - N/A   Mostly Cloudy
10:00 AM 44.6 °F - 26.6 °F 49% 29.83 in 6.2 mi WSW 2.2 mph - N/A   Mostly Cloudy
11:00 AM 51.8 °F - 33.8 °F 50% 29.83 in 6.2 mi WSW 2.2 mph - N/A   Mostly Cloudy
12:00 PM 53.6 °F - 35.6 °F 51% 29.83 in 6.2 mi East 4.5 mph - N/A   Mostly Cloudy
12:30 PM 50.0 °F - 32.0 °F 50% 29.83 in 6.2 mi NE 6.7 mph - N/A   Mostly Cloudy
1:00 PM 50.0 °F - 35.6 °F 58% 29.83 in 6.2 mi Calm Calm - N/A   Mostly Cloudy
1:30 PM 50.0 °F - 37.4 °F 62% 29.83 in 6.2 mi ENE 2.2 mph - N/A   Mostly Cloudy
2:00 PM 48.2 °F - 37.4 °F 66% 29.83 in 6.2 mi NE 8.9 mph - N/A   Mostly Cloudy
2:30 PM 48.2 °F - 37.4 °F 66% 29.86 in 6.2 mi NE 4.5 mph - N/A   Mostly Cloudy
3:00 PM 48.2 °F - 41.0 °F 76% 29.89 in 6.2 mi Calm Calm - N/A   Mostly Cloudy
3:30 PM 50.0 °F - 37.4 °F 62% 29.92 in 6.2 mi NNE 13.4 mph 20.1 mph N/A   Mostly Cloudy
4:00 PM 50.0 °F - 41.0 °F 71% 29.92 in 6.2 mi ENE 6.7 mph - N/A   Mostly Cloudy
4:30 PM 48.2 °F - 37.4 °F 66% 29.95 in 6.2 mi NNE 6.7 mph - N/A   Mostly Cloudy
5:00 PM 48.2 °F - 39.2 °F 71% 29.98 in 6.2 mi NE 4.5 mph - N/A   Mostly Cloudy
5:30 PM 46.4 °F 44.4 °F 39.2 °F 76% 29.98 in 6.2 mi East 4.5 mph - N/A   Overcast
6:00 PM 44.6 °F 42.3 °F 39.2 °F 81% 29.98 in 6.2 mi South 4.5 mph - N/A   Overcast
6:30 PM 42.8 °F 38.7 °F 39.2 °F 87% 30.01 in 6.2 mi SE 6.7 mph - N/A   Overcast
7:00 PM 42.8 °F 38.7 °F 39.2 °F 87% 30.04 in 6.2 mi SSE 6.7 mph - N/A   Overcast
9:00 PM 42.8 °F - 39.2 °F 87% 30.09 in 6.2 mi Calm Calm - N/A   Overcast
10:00 PM 41.0 °F - 39.2 °F 93% 30.09 in 6.2 mi Calm Calm - N/A   Overcast
11:00 PM 41.0 °F - 37.4 °F 87% 30.12 in 6.2 mi Calm Calm - N/A   Overcast